This is the latest recevied weather packets stored in our database for station/object N3FYI-5. If no packets are shown the sender has not sent any weather packets the latest 10 day(s).
| Time | Temp. | Humidity | Pressure | Rain* | Wind** | Luminosity | Snow |
|---|---|---|---|---|---|---|---|
| 1777677596 | 3.89° C | 75% | 1021.3 hPa | 0.51 mm | - | - | - |
| 1777677124 | 3.89° C | 76% | 1021.4 hPa | 0.76 mm | - | - | - |
| 1777676636 | 3.89° C | 77% | 1021.4 hPa | 0.76 mm | - | - | - |
| 1777676159 | 4.44° C | 78% | 1021.4 hPa | 0.51 mm | - | - | - |
| 1777675682 | 4.44° C | 79% | 1021.5 hPa | 0.51 mm | - | - | - |
| 1777675200 | 4.44° C | 79% | 1021.5 hPa | 0.51 mm | - | - | - |
| 1777674718 | 4.44° C | 79% | 1021.5 hPa | 0.51 mm | - | - | - |
| 1777674237 | 4.44° C | 79% | 1021.5 hPa | 0.51 mm | - | - | - |
| 1777673756 | 4.44° C | 80% | 1021.6 hPa | 0.76 mm | - | - | - |
| 1777673279 | 4.44° C | 78% | 1021.7 hPa | 0.76 mm | - | - | - |
| 1777672796 | 4.44° C | 79% | 1021.7 hPa | 1.02 mm | - | - | - |
| 1777672316 | 4.44° C | 82% | 1021.7 hPa | 1.02 mm | - | - | - |
| 1777671836 | 4.44° C | 83% | 1021.8 hPa | 0.76 mm | - | - | - |
| 1777671356 | 5° C | 80% | 1021.8 hPa | 1.02 mm | - | - | - |
| 1777670883 | 4.44° C | 82% | 1021.6 hPa | 1.27 mm | - | - | - |
| 1777670396 | 4.44° C | 83% | 1021.6 hPa | 1.02 mm | - | - | - |
| 1777669916 | 5° C | 85% | 1021.9 hPa | 0.76 mm | - | - | - |
| 1777669436 | 5° C | 84% | 1021.7 hPa | 0.76 mm | - | - | - |
| 1777668956 | 5° C | 84% | 1021.6 hPa | 0.76 mm | - | - | - |
| 1777668476 | 5° C | 83% | 1021.6 hPa | 1.02 mm | - | - | - |
| 1777668000 | 5° C | 85% | 1021.6 hPa | 0.76 mm | - | - | - |
| 1777667516 | 5° C | 85% | 1021.8 hPa | 0.76 mm | - | - | - |
| 1777667039 | 5.56° C | 84% | 1021.7 hPa | 0.76 mm | - | - | - |
| 1777666556 | 5° C | 84% | 1021.9 hPa | 1.02 mm | - | - | - |
| 1777666077 | 5° C | 85% | 1021.8 hPa | 1.27 mm | - | - | - |
* Rain latest hour (hover to see other rain measurements)
** Current wind speed in m/s (hover to see current wind gust speed)